GW7243 Weather Reports


Display with metric or nautical units.
time (UTC)temp
F
wind
direction
speed
MPH
gust
MPH
rain 1hr
in
rain 24hr
in
rain mn
in
humidity
%
barometer
mb
20260507052306 55 103 2.0 3.0 0.00 0.00 0.00 81 1009.9
20260507051804 55 198 2.0 3.0 0.00 0.00 0.00 81 1010.0
20260507051304 55 227 1.0 2.0 0.00 0.00 0.00 82 1009.9
20260507050804 55 262 1.0 3.0 0.00 0.00 0.00 82 1009.8
20260507050304 55 180 2.0 3.0 0.00 0.00 0.00 82 1009.9
20260507045804 55 250 2.0 3.0 0.00 0.00 0.00 82 1010.0
20260507045306 55 8 1.0 3.0 0.00 0.00 0.00 82 1009.8
20260507043804 55 153 2.0 3.0 0.00 0.00 0.00 82 1009.8
20260507042804 55 52 2.0 5.0 0.00 0.00 0.00 82 1009.6
20260507042306 55 215 2.0 5.0 0.00 0.00 0.00 81 1009.5
20260507041804 56 135 2.0 5.0 0.00 0.00 0.00 81 1009.4
20260507041305 56 235 2.0 5.0 0.00 0.00 0.00 80 1009.5
20260507040804 56 202 2.0 5.0 0.00 0.00 0.00 79 1009.3
20260507040304 56 158 2.0 6.0 0.00 0.00 0.00 79 1009.4
20260507035804 56 199 3.0 6.0 0.00 0.00 0.00 79 1009.4
20260507035306 56 181 2.0 3.0 0.00 0.00 0.00 79 1009.4
20260507034804 56 180 2.0 3.0 0.00 0.00 0.00 79 1009.5
20260507034304 56 183 2.0 3.0 0.00 0.00 0.00 79 1009.5
20260507033803 56 137 1.0 2.0 0.00 0.00 0.00 79 1009.4
20260507033304 56 156 1.0 2.0 0.00 0.00 0.00 79 1009.2
20260507032804 56 202 1.0 3.0 0.00 0.00 0.00 79 1009.3
20260507032306 56 260 1.0 3.0 0.00 0.00 0.00 79 1009.4
20260507031804 56 200 1.0 3.0 0.00 0.00 0.00 78 1009.4
20260507031304 56 204 1.0 2.0 0.00 0.00 0.00 78 1009.4
20260507030804 56 186 1.0 3.0 0.00 0.00 0.00 77 1009.4
20260507025804 57 44 0.0 2.0 0.00 0.00 0.00 77 1009.2
20260507025306 57 84 1.0 2.0 0.00 0.00 0.00 77 1009.3
20260507024804 57 120 1.0 3.0 0.00 0.00 0.00 77 1009.2
20260507024304 57 159 2.0 5.0 0.00 0.00 0.00 76 1009.1
20260507023303 57 145 2.0 5.0 0.00 0.00 0.00 76 1009.1
20260507022804 57 164 3.0 3.0 0.00 0.00 0.00 75 1009.0
20260507022306 57 135 1.0 3.0 0.00 0.00 0.00 75 1009.1
20260507021804 57 145 2.0 3.0 0.00 0.00 0.00 75 1009.0
20260507021304 57 101 2.0 5.0 0.00 0.00 0.00 75 1009.0
20260507020804 57 162 2.0 3.0 0.00 0.00 0.00 75 1009.0
20260507020304 57 177 2.0 5.0 0.00 0.00 0.00 75 1009.1
20260507015804 57 165 3.0 5.0 0.00 0.00 0.00 75 1009.2
20260507014804 57 166 5.0 7.0 0.00 0.00 0.00 76 1009.1
20260507014304 57 174 3.0 7.0 0.00 0.00 0.00 76 1009.3
20260507013804 57 161 2.0 5.0 0.00 0.00 0.00 76 1009.1
20260507013304 57 174 1.0 3.0 0.00 0.00 0.00 76 1009.3
20260507012804 57 158 2.0 3.0 0.00 0.00 0.00 76 1009.3
20260507012306 57 185 2.0 3.0 0.00 0.00 0.00 76 1009.5
20260507010804 57 164 2.0 3.0 0.00 0.00 0.00 75 1009.5
20260507010304 57 285 0.0 1.0 0.00 0.00 0.00 75 1009.5
20260507005804 57 35 1.0 2.0 0.00 0.00 0.00 75 1009.6
20260507005305 57 18 1.0 2.0 0.00 0.00 0.00 76 1009.7
20260507004804 57 167 0.0 2.0 0.00 0.00 0.00 76 1009.6
20260507004304 57 225 1.0 2.0 0.00 0.00 0.00 76 1009.6
20260507003804 57 238 1.0 2.0 0.00 0.00 0.00 75 1009.5
20260507003303 57 198 2.0 5.0 0.00 0.00 0.00 75 1009.8
20260507002803 57 189 3.0 6.0 0.00 0.00 0.00 75 1009.7
20260507002306 57 176 3.0 3.0 0.00 0.00 0.00 75 1009.9
20260507001804 57 187 1.0 3.0 0.00 0.00 0.00 75 1009.8
20260507001304 57 148 0.0 2.0 0.00 0.00 0.00 75 1009.9
20260507000803 57 257 1.0 2.0 0.00 0.00 0.00 75 1009.9
20260507000306 57 172 2.0 6.0 0.00 0.00 0.00 75 1010.0
20260506235306 57 169 3.0 5.0 0.00 0.00 0.00 76 1009.8
20260506234804 57 174 2.0 3.0 0.00 0.00 0.00 76 1009.9
20260506234304 57 181 2.0 3.0 0.00 0.00 0.00 76 1010.1
20260506233303 57 181 3.0 3.0 0.00 0.00 0.00 76 1010.2
20260506232306 57 208 1.0 3.0 0.00 0.00 0.00 75 1010.4
20260506231304 57 151 1.0 2.0 0.00 0.00 0.00 74 1010.1
20260506230804 57 324 0.0 1.0 0.00 0.00 0.00 74 1010.0
20260506230304 57 271 1.0 2.0 0.00 0.00 0.00 73 1010.1
20260506225804 57 247 2.0 5.0 0.00 0.00 0.00 73 1010.2
20260506225306 57 216 3.0 5.0 0.00 0.00 0.00 72 1010.2
20260506224804 57 241 3.0 5.0 0.00 0.00 0.00 73 1010.3
20260506223805 58 212 2.0 5.0 0.00 0.00 0.00 71 1010.2
20260506223304 58 219 3.0 5.0 0.00 0.00 0.00 69 1010.0
20260506222804 58 188 3.0 6.0 0.00 0.00 0.00 68 1010.3
20260506222306 58 190 5.0 6.0 0.00 0.00 0.00 67 1010.1
20260506221305 57 194 4.0 5.0 0.00 0.00 0.00 67 1010.0
20260506220305 58 216 3.0 6.0 0.00 0.00 0.00 65 1010.0
20260506215804 59 213 4.0 6.0 0.00 0.00 0.00 63 1010.0
20260506215306 58 199 4.0 6.0 0.00 0.00 0.00 63 1010.0
20260506214304 60 238 3.0 6.0 0.00 0.00 0.00 60 1010.1
20260506213805 60 224 4.0 6.0 0.00 0.00 0.00 59 1010.2
20260506213304 61 251 3.0 5.0 0.00 0.00 0.00 57 1009.9
20260506212805 61 228 3.0 5.0 0.00 0.00 0.00 56 1009.8
20260506212306 62 255 3.0 5.0 0.00 0.00 0.00 56 1009.8
20260506211304 63 275 5.0 8.0 0.00 0.00 0.00 54 1009.7
20260506210804 63 276 5.0 9.0 0.00 0.00 0.00 54 1009.6
20260506210304 63 276 5.0 7.0 0.00 0.00 0.00 54 1009.5
20260506205804 63 271 3.0 6.0 0.00 0.00 0.00 54 1009.7
20260506205306 63 276 5.0 8.0 0.00 0.00 0.00 53 1009.5
20260506204305 63 282 9.0 12.0 0.00 0.00 0.00 53 1009.4
20260506203804 64 278 5.0 8.0 0.00 0.00 0.00 52 1009.3
20260506203304 64 279 6.0 7.0 0.00 0.00 0.00 52 1009.3
20260506202804 64 259 6.0 8.0 0.00 0.00 0.00 51 1009.4
20260506202306 64 265 7.0 9.0 0.00 0.00 0.00 51 1009.4
20260506201804 64 261 5.0 9.0 0.00 0.00 0.00 51 1009.2
20260506201304 64 260 3.0 6.0 0.00 0.00 0.00 51 1009.3
20260506200805 64 258 5.0 7.0 0.00 0.00 0.00 51 1009.3
20260506200304 65 250 5.0 7.0 0.00 0.00 0.00 51 1009.1
20260506195804 64 253 3.0 5.0 0.00 0.00 0.00 51 1009.1
20260506195306 65 255 4.0 6.0 0.00 0.00 0.00 50 1009.1
20260506194804 66 259 3.0 6.0 0.00 0.00 0.00 48 1009.1
20260506194304 66 253 6.0 8.0 0.00 0.00 0.00 48 1008.8
20260506193804 66 268 5.0 9.0 0.00 0.00 0.00 47 1008.9
20260506193304 67 256 7.0 10.0 0.00 0.00 0.00 46 1008.8
20260506192804 67 264 7.0 10.0 0.00 0.00 0.00 46 1008.8
20260506192305 67 258 7.0 9.0 0.00 0.00 0.00 46 1008.8
20260506191804 67 260 7.0 9.0 0.00 0.00 0.00 46 1008.8
20260506191304 68 265 6.0 9.0 0.00 0.00 0.00 46 1008.7
20260506190804 68 257 6.0 12.0 0.00 0.00 0.00 46 1008.6
20260506190304 68 247 6.0 10.0 0.00 0.00 0.00 46 1008.5
20260506185804 69 249 9.0 13.0 0.00 0.00 0.00 45 1008.6
20260506185306 69 257 10.0 14.0 0.00 0.00 0.00 44 1008.5
20260506184304 70 261 9.0 15.0 0.00 0.00 0.00 43 1008.5
20260506183804 70 253 9.0 13.0 0.00 0.00 0.00 42 1008.5
20260506183304 70 259 10.0 14.0 0.00 0.00 0.00 42 1008.5
20260506182804 70 255 10.0 15.0 0.00 0.00 0.00 42 1008.5
20260506182306 71 273 10.0 16.0 0.00 0.00 0.00 41 1008.5
20260506181804 71 253 10.0 14.0 0.00 0.00 0.00 41 1008.3
20260506181304 71 248 12.0 17.0 0.00 0.00 0.00 40 1008.4
20260506180804 71 241 8.0 12.0 0.00 0.00 0.00 40 1008.5
20260506180304 71 254 10.0 13.0 0.00 0.00 0.00 41 1008.4
20260506175804 72 248 10.0 15.0 0.00 0.00 0.00 40 1008.4
20260506175306 72 232 10.0 14.0 0.00 0.00 0.00 39 1008.4
20260506174804 72 251 10.0 16.0 0.00 0.00 0.00 38 1008.5
20260506174303 72 224 11.0 14.0 0.00 0.00 0.00 38 1008.5
20260506173803 72 235 12.0 15.0 0.00 0.00 0.00 37 1008.6
20260506173304 72 231 9.0 15.0 0.00 0.00 0.00 36 1008.5
20260506172306 72 210 10.0 16.0 0.00 0.00 0.00 36 1008.5
20260506171804 73 217 9.0 14.0 0.00 0.00 0.00 36 1008.8
20260506171303 73 204 12.0 15.0 0.00 0.00 0.00 36 1008.7
20260506170805 73 241 9.0 14.0 0.00 0.00 0.00 36 1008.7
20260506170304 73 239 11.0 16.0 0.00 0.00 0.00 36 1008.7
20260506165805 73 233 12.0 17.0 0.00 0.00 0.00 36 1008.7
20260506165305 73 248 9.0 17.0 0.00 0.00 0.00 36 1008.8
20260506164304 74 200 10.0 17.0 0.00 0.00 0.00 36 1008.6
20260506163804 74 221 9.0 15.0 0.00 0.00 0.00 36 1008.8
20260506163304 74 205 13.0 18.0 0.00 0.00 0.00 36 1008.7
20260506162804 74 193 10.0 15.0 0.00 0.00 0.00 36 1008.7
20260506162307 74 219 10.0 17.0 0.00 0.00 0.00 36 1008.7
20260506161805 73 189 6.0 13.0 0.00 0.00 0.00 35 1008.5
20260506161304 74 192 5.0 9.0 0.00 0.00 0.00 31 1008.7
20260506160804 76 195 4.0 9.0 0.00 0.00 0.00 28 1008.5
20260506155804 74 273 2.0 7.0 0.00 0.00 0.00 27 1008.8
20260506154804 75 140 3.0 5.0 0.00 0.00 0.00 28 1008.7
20260506154304 73 28 1.0 7.0 0.00 0.00 0.00 27 1008.8
20260506153804 74 266 2.0 9.0 0.00 0.00 0.00 28 1008.7
20260506153303 75 279 7.0 10.0 0.00 0.00 0.00 27 1009.0
20260506152804 75 236 6.0 9.0 0.00 0.00 0.00 27 1008.9
20260506152306 76 292 8.0 10.0 0.00 0.00 0.00 27 1009.0
20260506151804 75 245 3.0 6.0 0.00 0.00 0.00 28 1009.2
20260506151304 74 251 3.0 10.0 0.00 0.00 0.00 28 1009.2
20260506150804 74 177 5.0 10.0 0.00 0.00 0.00 29 1009.3
20260506150305 74 268 7.0 10.0 0.00 0.00 0.00 29 1009.5
20260506145804 75 212 5.0 9.0 0.00 0.00 0.00 30 1009.5
20260506145306 75 263 4.0 10.0 0.00 0.00 0.00 29 1009.5
20260506144804 75 243 6.0 9.0 0.00 0.00 0.00 30 1009.7
20260506144304 73 103 3.0 6.0 0.00 0.00 0.00 32 1009.7
20260506143804 73 107 7.0 10.0 0.00 0.00 0.00 33 1009.9
20260506143304 76 99 3.0 8.0 0.00 0.00 0.00 31 1009.8
20260506142804 74 321 3.0 9.0 0.00 0.00 0.00 31 1010.0
20260506142306 74 291 2.0 7.0 0.00 0.00 0.00 31 1010.0
20260506141304 73 319 5.0 9.0 0.00 0.00 0.00 32 1010.3
20260506140804 73 272 5.0 8.0 0.00 0.00 0.00 32 1010.3
20260506140304 73 222 8.0 13.0 0.00 0.00 0.00 32 1010.4
20260506135804 74 339 4.0 7.0 0.00 0.00 0.00 31 1010.3
20260506135306 72 310 1.0 7.0 0.00 0.00 0.00 32 1010.5
20260506134804 73 185 7.0 12.0 0.00 0.00 0.00 32 1010.5
20260506134303 73 274 4.0 7.0 0.00 0.00 0.00 32 1010.5
20260506133804 72 88 2.0 6.0 0.00 0.00 0.00 32 1010.7
20260506133304 72 171 3.0 8.0 0.00 0.00 0.00 33 1010.7
20260506132804 72 201 4.0 10.0 0.00 0.00 0.00 33 1010.8
20260506132307 72 186 6.0 10.0 0.00 0.00 0.00 33 1010.7
20260506131804 72 216 8.0 10.0 0.00 0.00 0.00 33 1010.9
20260506131304 73 207 8.0 12.0 0.00 0.00 0.00 33 1010.9
20260506130804 71 73 6.0 10.0 0.00 0.00 0.00 33 1011.0
20260506130304 72 103 5.0 8.0 0.00 0.00 0.00 33 1011.0
20260506125804 72 270 6.0 8.0 0.00 0.00 0.00 32 1011.0
20260506125305 72 170 5.0 7.0 0.00 0.00 0.00 33 1011.2
20260506124804 71 41 5.0 7.0 0.00 0.00 0.00 32 1011.0
20260506124304 71 37 3.0 8.0 0.00 0.00 0.00 33 1011.2
20260506123806 71 25 7.0 8.0 0.00 0.00 0.00 33 1011.4
20260506123304 71 110 3.0 6.0 0.00 0.00 0.00 33 1011.5
20260506122803 71 118 3.0 7.0 0.00 0.00 0.00 33 1011.3
20260506122306 71 224 4.0 6.0 0.00 0.00 0.00 33 1011.5
20260506121804 70 320 5.0 7.0 0.00 0.00 0.00 33 1011.5
20260506121304 71 281 7.0 12.0 0.00 0.00 0.00 33 1011.6
20260506120304 71 273 5.0 8.0 0.00 0.00 0.00 34 1011.6
20260506115804 70 332 5.0 10.0 0.00 0.00 0.00 33 1011.6
20260506115307 71 262 7.0 12.0 0.00 0.00 0.00 33 1011.7
20260506114804 71 284 7.0 10.0 0.00 0.00 0.00 33 1011.8
20260506114304 71 295 3.0 7.0 0.00 0.00 0.00 32 1011.7
20260506113804 70 24 2.0 6.0 0.00 0.00 0.00 35 1011.8
20260506113304 70 194 2.0 6.0 0.00 0.00 0.00 34 1011.8
20260506112306 68 96 2.0 5.0 0.00 0.00 0.00 35 1012.0
20260506111804 70 180 6.0 7.0 0.00 0.00 0.00 35 1011.8
20260506110804 69 271 3.0 5.0 0.00 0.00 0.00 37 1012.1
20260506110304 69 260 3.0 6.0 0.00 0.00 0.00 36 1012.0
20260506105804 69 289 3.0 6.0 0.00 0.00 0.00 35 1012.2
20260506104804 69 346 5.0 8.0 0.00 0.00 0.00 36 1012.3
20260506104304 68 358 5.0 8.0 0.00 0.00 0.00 37 1012.3
20260506103805 69 37 5.0 7.0 0.00 0.00 0.00 37 1012.3
20260506103304 69 52 5.0 7.0 0.00 0.00 0.00 40 1012.2
20260506102804 68 60 2.0 6.0 0.00 0.00 0.00 42 1012.3
20260506102305 68 29 2.0 3.0 0.00 0.00 0.00 42 1012.6
20260506100804 67 119 2.0 6.0 0.00 0.00 0.00 43 1012.5
20260506100304 66 97 2.0 8.0 0.00 0.00 0.00 44 1012.5
20260506095804 66 47 5.0 9.0 0.00 0.00 0.00 43 1012.6
20260506095305 65 117 2.0 3.0 0.00 0.00 0.00 46 1012.6
20260506094804 65 80 3.0 7.0 0.00 0.00 0.00 46 1012.5
20260506094304 65 14 4.0 6.0 0.00 0.00 0.00 46 1012.5
20260506093304 65 39 4.0 9.0 0.00 0.00 0.00 46 1012.4
20260506092306 63 90 3.0 9.0 0.00 0.00 0.00 46 1012.6
20260506091804 64 58 5.0 7.0 0.00 0.00 0.00 47 1012.4
20260506091304 64 3 5.0 6.0 0.00 0.00 0.00 47 1012.5
20260506090804 63 155 1.0 3.0 0.00 0.00 0.00 48 1012.4
20260506085804 63 84 3.0 7.0 0.00 0.00 0.00 49 1012.5
20260506085306 62 343 3.0 7.0 0.00 0.00 0.00 49 1012.4
20260506084804 63 19 5.0 7.0 0.00 0.00 0.00 50 1012.6
20260506084304 63 31 3.0 5.0 0.00 0.00 0.00 49 1012.5
20260506083804 62 45 6.0 7.0 0.00 0.00 0.00 51 1012.4
20260506083304 62 47 5.0 8.0 0.00 0.00 0.00 51 1012.7
20260506082804 62 22 5.0 7.0 0.00 0.00 0.00 50 1012.5
20260506081805 62 359 3.0 7.0 0.00 0.00 0.00 51 1012.4
20260506081304 62 7 5.0 8.0 0.00 0.00 0.00 51 1012.4
20260506080804 62 6 7.0 9.0 0.00 0.00 0.00 51 1012.6
20260506073304 61 357 6.0 8.0 0.00 0.00 0.00 53 1012.5
20260506072804 61 5 5.0 10.0 0.00 0.00 0.00 54 1012.6
20260506072305 60 343 8.0 12.0 0.00 0.00 0.00 55 1012.4
20260506071804 61 347 7.0 10.0 0.00 0.00 0.00 55 1012.6
20260506071304 60 350 5.0 10.0 0.00 0.00 0.00 56 1012.5
20260506070804 60 348 7.0 9.0 0.00 0.00 0.00 56 1012.3
20260506062305 59 7 9.0 12.0 0.00 0.00 0.00 59 1012.5
20260506061804 59 342 6.0 9.0 0.00 0.00 0.00 59 1012.5
20260506060804 58 355 7.0 9.0 0.00 0.00 0.00 59 1012.2
20260506060304 58 353 6.0 9.0 0.00 0.00 0.00 60 1012.2